Flag for Italy Weather past 2 weeks in Bolzano, Italy

Now
39 °F

Passing clouds.


Feels Like: 39 °F
Forecast: 18 / 36 °F
Wind: 1 mph from North

Location: Bolzano

Current Time: Feb 27, 2015 at 10:30:33 PM

Latest Report: Feb 27, 2015 at 9:50 PM


Visibility: N/A

Pressure: 29.98 "Hg

Humidity: 81%

Dew point: 34 °F

Location of BolzanoLocation

Historic Weather in Bolzano — Graph

°F

Bolzano temperature yesterday

Maximum temperature yesterday: 55 °F (at 3:50 PM)
Minimum temperature yesterday: 36 °F (at 7:50 AM)
Average temperature yesterday: 48 °F

Past Weeks' High & Low Weather Summary

 TemperatureHumidityPressure
High59 °F (Feb 17, 2:50 PM)100% (Feb 14, 5:50 PM)30.60 "Hg (Feb 14, 5:50 PM)
Low25 °F (Feb 20, 7:50 AM)24% (Feb 25, 10:50 AM)29.56 "Hg (Feb 22, 4:50 PM)
Average44 °F65%30.04 "Hg
* Reported Feb 12 8:50 PM — Feb 27 8:50 PM, Bolzano, Weather by CustomWeather, © 2015

Note: Actual official high and low records may vary slightly from our data, if they occured in-between our weather recording intervals... More about our weather records

Advertising

Bolzano weather history for previous 24 hours

 ConditionsComfort  
Time TempWeatherWind HumidityBarometerVisibility
8:50 PM
Fri, Feb 27
39 °FPassing clouds.2 mph81%29.95 "HgN/A
7:50 PM37 °FPassing clouds.2 mph87%29.92 "HgN/A
6:50 PM43 °FPassing clouds.No wind71%29.92 "HgN/A
5:50 PM45 °FPartly sunny.1 mph66%29.89 "HgN/A
4:50 PM46 °FPartly sunny.No wind62%29.89 "HgN/A
3:50 PM46 °FPartly sunny.1 mph62%29.89 "HgN/A
2:50 PM45 °FBroken clouds.2 mph100%29.89 "HgN/A
1:50 PM45 °FBroken clouds.6 mph100%29.89 "HgN/A
12:50 PM43 °FBroken clouds.6 mph71%29.92 "HgN/A
11:50 AM45 °FMore clouds than sun.8 mph57%29.89 "HgN/A
10:50 AM46 °FBroken clouds.1 mph50%29.89 "HgN/A
9:50 AM45 °FBroken clouds.No wind53%29.89 "HgN/A
8:50 AM43 °FPartly sunny.3 mph57%29.92 "HgN/A
7:50 AM39 °FPartly sunny.No wind87%29.92 "HgN/A
6:50 AM39 °FMostly cloudy.No wind87%29.92 "HgN/A
10:50 PM
Thu, Feb 26
46 °FPassing clouds.2 mph57%30.01 "HgN/A
Weather by CustomWeather, © 2015

See weather overviewHow to use our weather pages